Weather reports worldwide

Advertisment
Buenos Aires, Argentina (87585): temperature & dewpoint: 18.06.2018 11:00:00 - 24.06.2018 11:00:00 (ART)Buenos Aires, Argentina (87585): wind speed: 18.06.2018 11:00:00 - 24.06.2018 11:00:00 (ART)Buenos Aires, Argentina (87585): wind direction: 18.06.2018 11:00:00 - 24.06.2018 11:00:00 (ART)Buenos Aires, Argentina (87585): reduced air pressure: 18.06.2018 11:00:00 - 24.06.2018 11:00:00 (ART)Buenos Aires, Argentina (87585): visibility: 18.06.2018 11:00:00 - 24.06.2018 11:00:00 (ART)
Date & Time tt [°C] td [°C] ff [km/h] ff [kn] dd ppp [hPa] vv [km]
24.06.2018 11:00:00 - - - - - - -
24.06.2018 10:00:00 - - - - - - -
24.06.2018 09:00:00 1,2 -3,6 0 0 N 1025,7 10
24.06.2018 08:00:00 - - - - - - -
24.06.2018 07:00:00 - - - - - - -
24.06.2018 06:00:00 1,5 -2,6 13 7 S 1025,4 10
24.06.2018 05:00:00 - - - - - - -
24.06.2018 04:00:00 - - - - - - -
24.06.2018 03:00:00 3,5 -4,6 16 9 S 1026,3 10
24.06.2018 02:00:00 - - - - - - -
24.06.2018 01:00:00 - - - - - - -
24.06.2018 00:00:00 4,9 -4,5 18 10 S 1026,0 10
23.06.2018 23:00:00 - - - - - - -
23.06.2018 22:00:00 - - - - - - -
23.06.2018 21:00:00 7,8 -3,1 24 13 SE 1024,1 10
23.06.2018 20:00:00 - - - - - - -
23.06.2018 19:00:00 - - - - - - -
23.06.2018 18:00:00 11,0 3,3 13 7 S 1020,0 10
23.06.2018 17:00:00 - - - - - - -
23.06.2018 16:00:00 - - - - - - -
23.06.2018 15:00:00 15,0 6,2 13 7 S 1016,1 10
23.06.2018 14:00:00 - - - - - - -
23.06.2018 13:00:00 - - - - - - -
23.06.2018 12:00:00 16,0 6,0 16 9 S 1014,8 10
23.06.2018 11:00:00 - - - - - - -
23.06.2018 10:00:00 - - - - - - -
23.06.2018 09:00:00 9,7 4,8 5 3 S 1011,9 10
23.06.2018 08:00:00 - - - - - - -
23.06.2018 07:00:00 - - - - - - -
23.06.2018 06:00:00 9,7 6,1 4 2 SW 1010,2 10
23.06.2018 05:00:00 - - - - - - -
23.06.2018 04:00:00 - - - - - - -
23.06.2018 03:00:00 12,1 7,2 8 4 NW 1010,4 10
23.06.2018 02:00:00 - - - - - - -
23.06.2018 01:00:00 - - - - - - -
23.06.2018 00:00:00 13,2 6,4 8 4 N 1011,4 10
22.06.2018 23:00:00 - - - - - - -
22.06.2018 22:00:00 - - - - - - -
22.06.2018 21:00:00 13,3 7,4 4 2 N 1011,9 10
22.06.2018 20:00:00 - - - - - - -
22.06.2018 19:00:00 - - - - - - -
22.06.2018 18:00:00 14,2 5,4 5 3 NW 1012,2 10
22.06.2018 17:00:00 - - - - - - -
22.06.2018 16:00:00 - - - - - - -
22.06.2018 15:00:00 16,6 5,0 11 6 W 1013,8 10
22.06.2018 14:00:00 - - - - - - -
22.06.2018 13:00:00 - - - - - - -
22.06.2018 12:00:00 14,2 5,1 18 10 NW 1017,2 10
22.06.2018 11:00:00 - - - - - - -
22.06.2018 10:00:00 - - - - - - -
22.06.2018 09:00:00 8,4 2,5 8 4 NW 1017,8 10
22.06.2018 08:00:00 - - - - - - -
22.06.2018 07:00:00 - - - - - - -
22.06.2018 06:00:00 5,6 3,5 2 1 W 1018,9 10
22.06.2018 05:00:00 - - - - - - -
22.06.2018 04:00:00 - - - - - - -
22.06.2018 03:00:00 6,1 3,5 0 0 N 1020,4 10
22.06.2018 02:00:00 - - - - - - -
22.06.2018 01:00:00 - - - - - - -
22.06.2018 00:00:00 6,8 3,3 0 0 N 1021,0 10
21.06.2018 23:00:00 - - - - - - -
21.06.2018 22:00:00 - - - - - - -
21.06.2018 21:00:00 9,3 3,6 5 3 SW 1021,0 10
21.06.2018 20:00:00 - - - - - - -
21.06.2018 19:00:00 - - - - - - -
21.06.2018 18:00:00 13,1 1,9 15 8 S 1019,5 10
21.06.2018 17:00:00 - - - - - - -
21.06.2018 16:00:00 - - - - - - -
21.06.2018 15:00:00 16,2 4,4 18 10 SW 1017,8 10
21.06.2018 14:00:00 - - - - - - -
21.06.2018 13:00:00 - - - - - - -
21.06.2018 12:00:00 15,9 4,2 16 9 S 1017,9 10
21.06.2018 11:00:00 - - - - - - -
21.06.2018 10:00:00 - - - - - - -
21.06.2018 09:00:00 11,2 4,1 11 6 SW 1015,6 10
21.06.2018 08:00:00 - - - - - - -
21.06.2018 07:00:00 - - - - - - -
21.06.2018 06:00:00 14,7 9,3 15 8 SW 1012,7 10
21.06.2018 05:00:00 - - - - - - -
21.06.2018 04:00:00 - - - - - - -
21.06.2018 03:00:00 18,0 16,7 0 0 N 1010,2 10
21.06.2018 02:00:00 - - - - - - -
21.06.2018 01:00:00 - - - - - - -
21.06.2018 00:00:00 18,2 15,9 9 5 NW 1010,4 10
20.06.2018 23:00:00 - - - - - - -
20.06.2018 22:00:00 - - - - - - -
20.06.2018 21:00:00 17,1 14,9 9 5 N 1011,1 10
20.06.2018 20:00:00 - - - - - - -
20.06.2018 19:00:00 - - - - - - -
20.06.2018 18:00:00 16,2 13,6 4 2 NE 1012,5 10
20.06.2018 17:00:00 - - - - - - -
20.06.2018 16:00:00 - - - - - - -
20.06.2018 15:00:00 19,0 11,9 8 4 NW 1014,7 10
20.06.2018 14:00:00 - - - - - - -
20.06.2018 13:00:00 - - - - - - -
20.06.2018 12:00:00 18,2 11,7 8 4 NW 1018,0 10
20.06.2018 11:00:00 - - - - - - -
20.06.2018 10:00:00 - - - - - - -
20.06.2018 09:00:00 11,5 9,9 5 3 NW 1019,2 10
20.06.2018 08:00:00 - - - - - - -
20.06.2018 07:00:00 - - - - - - -
20.06.2018 06:00:00 9,2 8,6 2 1 NW 1018,1 10
20.06.2018 05:00:00 - - - - - - -
20.06.2018 04:00:00 - - - - - - -
20.06.2018 03:00:00 11,8 9,2 5 3 NW 1018,1 10
20.06.2018 02:00:00 - - - - - - -
20.06.2018 01:00:00 - - - - - - -
20.06.2018 00:00:00 13,8 9,1 9 5 NW 1018,1 10
19.06.2018 23:00:00 - - - - - - -
19.06.2018 22:00:00 - - - - - - -
19.06.2018 21:00:00 12,0 9,5 5 3 NW 1017,3 10
19.06.2018 20:00:00 - - - - - - -
19.06.2018 19:00:00 - - - - - - -
19.06.2018 18:00:00 15,0 10,5 5 3 N 1016,2 10
19.06.2018 17:00:00 - - - - - - -
19.06.2018 16:00:00 - - - - - - -
19.06.2018 15:00:00 18,9 8,6 9 5 NW 1016,9 10
19.06.2018 14:00:00 - - - - - - -
19.06.2018 13:00:00 - - - - - - -
19.06.2018 12:00:00 15,2 7,9 8 4 W 1018,9 10
19.06.2018 11:00:00 - - - - - - -
19.06.2018 10:00:00 - - - - - - -
19.06.2018 09:00:00 9,6 5,9 9 5 NW 1020,1 10
19.06.2018 08:00:00 - - - - - - -
19.06.2018 07:00:00 - - - - - - -
19.06.2018 06:00:00 9,5 7,4 9 5 NW 1020,5 10
19.06.2018 05:00:00 - - - - - - -
19.06.2018 04:00:00 - - - - - - -
19.06.2018 03:00:00 10,7 7,6 11 6 NNW 1022,0 10
19.06.2018 02:00:00 - - - - - - -
19.06.2018 01:00:00 - - - - - - -
19.06.2018 00:00:00 12,3 7,6 13 7 NW 1022,3 10
18.06.2018 23:00:00 - - - - - - -
18.06.2018 22:00:00 - - - - - - -
18.06.2018 21:00:00 13,4 7,3 13 7 NW 1023,1 10
18.06.2018 20:00:00 - - - - - - -
18.06.2018 19:00:00 - - - - - - -
18.06.2018 18:00:00 15,8 4,6 5 3 NW 1023,5 10
18.06.2018 17:00:00 - - - - - - -
18.06.2018 16:00:00 - - - - - - -
18.06.2018 15:00:00 18,6 6,0 13 7 NW 1023,9 10
18.06.2018 14:00:00 - - - - - - -
18.06.2018 13:00:00 - - - - - - -
18.06.2018 12:00:00 14,6 4,6 8 4 NW 1027,2 10
18.06.2018 11:00:00 - - - - - - -

tt = temperature
td = dewpoint
ff = wind speed
dd = wind direction
ppp = reduced air pressure
vv = visibility

Next stations